{"data":{"norad_id":81865,"epoch":"2026-09-15T12:38:54.254976Z","epoch_age_seconds":444328,"freshness":"STALE","line1":"1 81865U          26258.52701684  .00000863  00000+0  69455-3 0  9992","line2":"2 81865  82.8074 174.8648 0061046 298.5220 182.0523 13.88670481646959","mean_motion":13.88670481,"eccentricity":0.0061046,"inclination_deg":82.8074,"raan_deg":174.8648,"arg_perigee_deg":298.522,"mean_anomaly_deg":182.0523,"bstar":0.00069455,"rev_number":64695,"period_min":103.69630662582,"perigee_km":888.66040967018,"apogee_km":977.92713022664,"semimajor_km":7311.4307699484,"source":"CELESTRAK","updated_at":"2026-09-20T09:00:32.397314Z"}}